User: anonymous   Login
Location: Unspecified
(0.0000°N, 0.0000°E)
Time: 00:06:38
(UTC+00:00)
Language:

STARLINK-5452 - Orbit

View from above orbital plane
View from above orbital plane
View from above satellite
View from above satellite

Ground track
Ground track

The orbit is defined by the following mean orbital elements,

1 54772U          26145.10514716 +.00000000 +00000-0 +20841-4 0 00000
2 54772  53.2124  46.2216 0001391  81.4772 278.6378 15.08838218    03
Epoch (UTC): 25 May 2026 02:31:24
Eccentricity: 0.0001391
inclination: 53.2124°
perigee height: 539 km
apogee height: 541 km
right ascension of ascending node: 46.2216°
argument of perigee: 81.4772°
revolutions per day: 15.08838218
mean anomaly at epoch: 278.6378°

The dashed part of the orbit path shows where the satellite is in the earth's shadow,  

DLR